www.pogodaiklimat.ru

Погода и климат >> Архив погоды >> Россия >> Самарская область >> Самара


АРХИВ ПОГОДЫ в Самаре

Время (UTC), дата Ветер
(напр.,м/с)
 
Видим.   Явления Облачность Т
(С)
Тd
(С)
f
(%)
Тe
(С)
Тes
(С)
Комфортность P
(гПа)
Po
(гПа)
Тmin
(С)
Tmax
(С)
R
(мм)
S
(см)
21 14.02 ЮВ 2
{10}
10 км слабый снег {метель} 10/10 600 м
[Sc]
-10.2 -12.2 85 -15 -15 1012.6 994.4
00 15.02 В 3 10 км позёмок {снег, метель} 10/6 600 м
[Sc Ac trans]
-10.0 -11.5 89 -16 -16 1012.1 993.9
03 15.02 В 3 10 км позёмок {снег, метель} 10/0
[Ac trans]
-10.1 -11.7 88 -16 -16 1012.1 993.9 -10.4 1 67
06 15.02 В 3 4000 м слабый снег {метель} 10/10 600 м
[Sc diur, vesp]
-9.7 -11.3 88 -16 -16 1013.4 995.3
09 15.02 В 3 4000 м слабый снег 10/0
[Ac As]
-8.6 -10.8 84 -14 -13 1013.6 995.5
12 15.02 В 3 10 км в посл. час снег 10/0
[Ac trans]
-8.1 -10.6 82 -14 -14 1013.0 995.0
15 15.02 В 1 10 км слабый снег 10/4 600 м
[Sc Ac trans]
-8.7 -10.5 87 -11 -11 1014.0 995.9 -7.3 0.6
18 15.02 СВ 1 10 км слабый снег 10/10 600 м
[Sc]
-9.2 -10.7 89 -12 -12 1014.3 996.2
21 15.02 СВ 1 10 км {снег} 10/6 600 м
[Sc Ac trans]
-9.3 -11.2 86 -12 -12 1014.7 996.6
00 16.02 СВ 2 10 км {снег} 10/6 600 м
[Sc]
-10.1 -12.0 86 -15 -15 1015.9 997.7
03 16.02 СВ 2 10 км 5/0
[Ac trans]
-11.2 -13.0 87 -16 -16 1017.7 999.3 -11.2 0.4 65
06 16.02 СВ 2 10 км 5/0
[Ac trans Ci fib]
-11.2 -13.3 84 -16 -14 1019.6 1001.3 -11.6
09 16.02 СВ 3 10 км 3/0
[Ci fib]
-8.0 -12.1 72 -14 -11 1020.8 1002.6
12 16.02 С 2 10 км 1/0
[Ci fib]
-7.7 -12.5 68 -12 -11 1021.5 1003.3
15 16.02 С 2 10 км ясно -10.3 -12.9 81 -15 -15 1023.7 1005.3 -7.1
18 16.02 С 1 10 км ясно -11.9 -14.0 84 -14 -14 1025.1 1006.6
21 16.02 СЗ 1 10 км ясно -13.4 -15.1 87 -16 -16 1025.7 1007.1
00 17.02 З 1 10 км ясно -14.2 -15.8 88 -17 -17 1026.4 1007.7
03 17.02 С 1 10 км 3/0
[Ci fib]
-12.8 -14.4 88 -15 -15 1026.4 1007.8 -16.1 65
06 17.02 СЗ 1 10 км 9/0
[Ac trans]
-9.7 -11.1 89 -12 -11 1027.0 1008.6
09 17.02 З 2 10 км слабый снег 9/4 600 м
[Sc Ac trans]
-7.0 -11.1 73 -11 -10 1026.3 1008.1
12 17.02 ЮВ 1 10 км в посл. час снег 8/3 600 м
[Sc Ac trans]
-5.9 -11.2 66 -8 -7 1024.9 1006.8
15 17.02 Ю 1 10 км ясно -10.0 -12.4 83 -12 -12 1024.8 1006.5 -5.0
18 17.02 Ю 1 10 км ясно -13.5 -15.8 83 -16 -16 1024.2 1005.6
21 17.02 ЮЗ 1 10 км ясно -13.7 -15.3 88 -16 -16 1023.0 1004.4
00 18.02 ЮЗ 1 10 км 3/0
[Ci fib]
-13.3 -15.3 85 -16 -16 1021.1 1002.6
03 18.02 ЮЗ 2 10 км 8/0
[Ac trans Ci fib]
-13.5 -15.3 86 -18 -18 1019.0 1000.5 -16.3 65
06 18.02 ЮЗ 2 10 км слабый снег 10/10 600 м
[Sc]
-13.4 -15.7 83 -18 -18 1017.8 999.3
09 18.02 ЮЗ 2 10 км слабый снег 10/6 600 м
[Sc Ac trans]
-11.8 -14.2 82 -16 -16 1015.7 997.3
12 18.02 ЮЗ 3 10 км в посл. час снег 10/4 600 м
[Sc Ac trans]
-10.5 -12.6 85 -16 -16 1013.5 995.3
15 18.02 ЮЗ 2 10 км {снег} 10/4 600 м
[Sc Ac trans]
-9.4 -11.3 86 -14 -14 1012.7 994.6 -9.4 1
18 18.02 ЮЗ 1 10 км {снег} 10/6 600 м
[Sc Ac trans]
-7.9 -9.5 88 -10 -10 1011.0 993.1
21 18.02 З 2 4000 м слабый снег 10/10 600 м
[Sc]
-5.3 -5.5 98 -10 -10 1009.6 991.8
00 19.02 З 3 4000 м слабый снег 10/10 600 м
[Sc]
-2.9 -2.9 100 -8 -8 1007.8 990.2
03 19.02 З 3
{10}
10 км {снег} 10/6 600 м
[Sc Ac trans]
+0.3 -0.1 97 -5 -5 1006.2 988.9 -9.4 1 65
06 19.02 З 4
{11}
4000 м слабый снег {метель} 10/10 600 м
[Sc diur, vesp]
+0.9 -0.9 88 -4 -4 1006.7 989.4
09 19.02 З 3
{11}
10 км {ливн. осадки, снег} 9/9 600 м
[Sc diur, vesp]
+2.2 -2.7 70 -2 -1 1009.3 992.0
12 19.02 СЗ 3
{12}
10 км {ливн. осадки, снег} 5/4 600 м
[Sc diur, vesp Ci fib]
+2.2 -5.5 57 -1 -1 1012.4 995.0
15 19.02 З 1 10 км 3/0
[Ci fib]
-3.1 -6.8 76 -5 -5 1015.3 997.6 +3.4 0.4
18 19.02 ЮЗ 1 10 км 8/0
[Ci fib]
-2.1 -9.9 55 -4 -4 1015.8 998.1
21 19.02 ЮЗ 2 10 км 10/6 600 м
[Sc Ci fib]
-1.8 -4.4 82 -6 -6 1014.7 997.0
00 20.02 ЮЗ 3 10 км 10/6 600 м
[Sc Ac trans]
-0.9 -3.2 84 -6 -6 1012.4 994.8
03 20.02 ЮЗ 5-10
{12}
10 км 10/6 600 м
[Sc Ac trans]
-0.3 -2.9 83 -6 -6 1010.3 992.8 -3.9 62
06 20.02 З 5-10
{10}
10 км 10/6 600 м
[Sc diur, vesp Ac trans]
+0.3 -2.4 82 -6 -5 1009.7 992.3
09 20.02 ЮЗ 5-10
{13}
10 км 10/6 600 м
[Sc Ac trans]
+1.0 -1.8 82 -5 -4 1009.0 991.6
12 20.02 ЮЗ 5
{12}
10 км 10/5 600 м
[Sc Ac trans]
+1.2 -1.9 80 -4 -4 1007.7 990.4
15 20.02 ЮЗ 4
{12}
10 км 10/5 600 м
[Sc Ac trans]
+0.9 -2.0 81 -4 -4 1007.6 990.3 +1.3
18 20.02 ЮЗ 4
{10}
10 км 10/5 600 м
[Sc Ac trans]
+0.5 -1.9 84 -5 -5 1007.6 990.2
21 20.02 ЮЗ 4-10
{12}
10 км 10/5 600 м
[Sc Ac inh]
-0.2 -2.1 87 -6 -6 1006.9 989.5
00 21.02 З 5-11
{13}
10 км 10/8 600 м
[Sc Ac trans]
-0.6 -2.6 86 -7 -7 1005.9 988.5
03 21.02 З 3
{12}
10 км 10/8
[Sc Ac trans]
-0.3 -2.5 85 -5 -5 1005.6 988.2 -0.8 61
06 21.02 ЮЗ 4
{10}
10 км 10/8 600 м
[Sc Ac und]
+0.1 -2.7 81 -5 -5 1005.4 988.1
09 21.02 ЮЗ 3-12
{13}
10 км 10/5 600 м
[Sc Ac trans Ci fib]
+0.6 -2.0 83 -4 -3 1005.0 987.7
12 21.02 ЮЗ 3
{11}
10 км 9/3 600 м
[Sc Ac trans Ci fib]
+1.8 -2.2 75 -2 -2 1004.3 987.1
15 21.02 ЮЗ 3 10 км слабый дождь {снег} 10/8 600 м
[Sc Ac und]
+1.4 -1.0 84 -3 -3 1004.4 987.2 +2.3
18 21.02 ЮЗ 3 10 км {дождь} ясно +1.1 -1.4 83 -3 -3 1003.7 986.4

 

Местоположение метеостанции Самара (Самарская область, Россия): широта 53.25 долгота 50.22 высота над уровнем моря 139 м.

В архиве по умолчанию представлена погода в Самаре за последнюю неделю. Архивные данные за месяц целиком и за предыдущие месяцы, начиная с января 2011 года, Вы можете получить, выбрав интересующий диапазон дат из раскрывающегося списка и нажав кнопку "Ввод!".

Внимание! Время в таблицах - всемирное. Для получения местного времени необходимо прибавить поправку, которая в Самаре равна 4 ч.

Смотрите также архив погоды в соседних городах и на ближайших метеорологических станциях:

Погода в Самаре-Центр (Самарская область, Россия) (8 км)
Погода в Курумоче (Самарская область, Россия) (28 км)
Погода в Аглосе (Самарская область, Россия) (32 км)
Погода в Безенчуке (Самарская область, Россия) (61 км)
Погода в Тольятти (Самарская область, Россия) (69 км)
Погода в Кинель-Черкассах (Самарская область, Россия) (94 км)
Погода в Большая Глушица (Самарская область, Россия) (98 км)
Погода в Авангарде Зерносовхозе (Самарская область, Россия) (100 км)
Погода в Новодевичьем (Самарская область, Россия) (100 км)
Погода в Серноводске (Самарская область, Россия) (102 км)

Пояснения к столбцам:

Ветер - указаны скорость ветра в м/с - средняя за 10 мин, порывы в срок и между сроками (в фигурных скобках) и направление, откуда дует ветер: С - северный, СВ - северо-восточный, В - восточный, ЮВ - юго-восточный, Ю - южный, ЮЗ - юго-западный, З - западный, СЗ - северо-западный.
Видимость - горизонтальная дальность видимости в метрах или километрах. При видимости от 1 до 10 км при отсутствии осадков обычно наблюдается дымка, при ухудшении видимости до 1 км и менее - туман. В сухую погоду видимость может ухудшаться дымом, пылью или мглою.
Явления - указаны атмосферные явления, наблюдавшиеся в срок или в последний час перед сроком; фигурными скобками обозначены явления, наблюдавшиеся между сроками (за 1-3 часа до срока); квадратными скобками обозначены град или гололедные отложения с указанием их диаметра в мм.
Облачность - указаны через наклонную черту общая и нижняя облачность в баллах и высота нижней границы облаков в метрах; квадратными скобками обозначены формы облаков: Ci - перистые, Cs - перисто-слоистые, Cc - перисто-кучевые, Ac - высококучевые, As - высокослоистые, Sc - слоисто-кучевые, Ns - слоисто-дождевые, Cu - кучевые, Cb - кучево-дождевые. Подробнее классификацию облаков см. в Атласе облаков (PDF).
T - Температура воздуха - температура, измеренная на высоте 2 м над землей.
Td - Температура точки росы - температура, при понижении до которой содержащийся в воздухе водяной пар достигнет насыщения.
f - Относительная влажность воздуха - влажноcть воздуха, измеренная на высоте 2 м над землей.
Te - Эффективная температура - температура, которую ощущает одетый по сезону человек в тени. Характеристика душности погоды. При расчете учитывается влияние влажности воздуха и скорости ветра на теплоощущения человека.
Tes - Эффективная температура на солнце - температура, которую ощущает человек, с поправкой на солнечный нагрев. Характеристика знойности погоды. Зависит от высоты солнца над горизонтом, облачности и скорости ветра. Ночью, в пасмурную погоду, а также при ветре 12 м/с и более поправка равна нулю.
P - Атмосферное давление - приведенное к уровню моря атмосферное давление.
Po - Атмосферное давление - измеренное на уровне метеостанции атмосферное давление.
Tmin - Минимальная температура - минимум температуры воздуха на высоте 2 м над землей.
Tmax - Максимальная температура - максимум температуры воздуха на высоте 2 м над землей.
R - Количество осадков - Количество выпавших осадков, мм. При наведении курсора мыши на число - период времени, за который выпало указанное количество осадков.
S - Снежный покров - Высота снежного покрова, см. При наведении курсора мыши на число - состояние снежного покрова и степень покрытия местности в баллах.